TimeEST,TemperatureF,Dew PointF,Humidity,Sea Level PressureIn,VisibilityMPH,Wind Direction,Wind SpeedMPH,Gust SpeedMPH,PrecipitationIn,Events,Conditions,WindDirDegrees,DateUTC
12:15 AM,51.8,51.8,100,30.16,1.0,Calm,Calm,-,N/A,,Mist,0,2013-02-07 05:15:00
12:35 AM,51.8,51.8,100,30.15,3.0,NE,3.5,-,N/A,,Clear,40,2013-02-07 05:35:00
12:55 AM,51.8,50.0,94,30.14,4.0,NE,5.8,-,N/A,,Clear,50,2013-02-07 05:55:00
1:15 AM,51.8,51.8,100,30.14,3.0,Calm,Calm,-,N/A,,Clear,0,2013-02-07 06:15:00
1:55 AM,51.8,51.8,100,30.14,2.5,NE,3.5,-,N/A,,Clear,50,2013-02-07 06:55:00
2:15 AM,51.8,50.0,94,30.13,4.0,NNE,3.5,-,N/A,,Clear,30,2013-02-07 07:15:00
2:35 AM,51.8,51.8,100,30.14,4.0,NE,3.5,-,N/A,,Clear,50,2013-02-07 07:35:00
2:55 AM,51.8,51.8,100,30.13,5.0,NE,5.8,-,N/A,,Clear,50,2013-02-07 07:55:00
3:15 AM,53.6,51.8,94,30.14,5.0,NNE,4.6,-,N/A,,Clear,30,2013-02-07 08:15:00
3:35 AM,53.6,51.8,94,30.14,7.0,NNE,4.6,-,N/A,,Mostly Cloudy,30,2013-02-07 08:35:00
3:55 AM,53.6,53.6,100,30.13,7.0,NE,4.6,-,N/A,,Overcast,40,2013-02-07 08:55:00
4:15 AM,53.6,51.8,94,30.12,7.0,NNE,6.9,-,N/A,,Overcast,30,2013-02-07 09:15:00
4:35 AM,53.6,51.8,94,30.13,7.0,NNE,5.8,-,N/A,,Mostly Cloudy,30,2013-02-07 09:35:00
4:55 AM,53.6,51.8,94,30.14,7.0,NNE,5.8,-,N/A,,Overcast,30,2013-02-07 09:55:00
5:15 AM,53.6,51.8,94,30.13,7.0,NNE,6.9,-,N/A,,Overcast,30,2013-02-07 10:15:00
5:35 AM,53.6,51.8,94,30.14,7.0,NNE,5.8,-,N/A,,Overcast,30,2013-02-07 10:35:00
5:55 AM,53.6,51.8,94,30.13,7.0,NNE,6.9,-,N/A,,Overcast,30,2013-02-07 10:55:00
6:15 AM,53.6,51.8,94,30.14,7.0,NE,5.8,-,N/A,,Mostly Cloudy,40,2013-02-07 11:15:00
6:55 AM,53.6,51.8,94,30.13,7.0,NE,5.8,-,N/A,,Mostly Cloudy,40,2013-02-07 11:55:00
7:15 AM,55.4,51.8,88,30.13,7.0,NE,6.9,-,N/A,,Mostly Cloudy,40,2013-02-07 12:15:00
7:35 AM,55.4,51.8,88,30.12,7.0,NE,6.9,-,N/A,,Overcast,50,2013-02-07 12:35:00
7:55 AM,55.4,51.8,88,30.13,5.0,NE,6.9,-,N/A,,Overcast,40,2013-02-07 12:55:00
8:15 AM,55.4,53.6,94,30.13,5.0,NE,6.9,-,N/A,,Overcast,50,2013-02-07 13:15:00
8:35 AM,55.4,53.6,94,30.12,5.0,NE,9.2,-,N/A,,Overcast,50,2013-02-07 13:35:00
8:55 AM,57.2,53.6,88,30.12,7.0,ENE,9.2,-,N/A,,Overcast,60,2013-02-07 13:55:00
9:15 AM,57.2,53.6,88,30.12,5.0,ENE,8.1,-,N/A,,Overcast,60,2013-02-07 14:15:00
9:35 AM,59.0,53.6,82,30.11,5.0,ENE,8.1,-,N/A,,Haze,70,2013-02-07 14:35:00
9:55 AM,59.0,53.6,82,30.10,7.0,East,15.0,-,N/A,,Overcast,80,2013-02-07 14:55:00
10:15 AM,59.0,55.4,88,30.10,5.0,ENE,13.8,-,N/A,,Overcast,70,2013-02-07 15:15:00
10:35 AM,60.8,55.4,82,30.09,5.0,ENE,11.5,-,N/A,,Haze,70,2013-02-07 15:35:00
11:15 AM,60.8,55.4,82,30.08,5.0,East,9.2,-,N/A,,Haze,90,2013-02-07 16:15:00
11:35 AM,60.8,55.4,82,30.06,7.0,East,10.4,-,N/A,Rain,Light Rain,80,2013-02-07 16:35:00
11:55 AM,59.0,55.4,88,30.06,5.0,East,11.5,18.4,N/A,Rain,Light Rain,90,2013-02-07 16:55:00
12:15 PM,59.0,55.4,88,30.06,4.0,East,9.2,-,N/A,Rain,Rain,80,2013-02-07 17:15:00
12:35 PM,59.0,55.4,88,30.05,4.0,ENE,4.6,-,N/A,Rain,Rain,70,2013-02-07 17:35:00
12:55 PM,59.0,55.4,88,30.04,3.0,East,6.9,-,N/A,Rain,Heavy Rain,90,2013-02-07 17:55:00
1:15 PM,59.0,57.2,94,30.02,3.0,East,5.8,-,N/A,Rain,Rain,80,2013-02-07 18:15:00
1:35 PM,59.0,57.2,94,30.01,3.0,ENE,5.8,-,N/A,Rain,Rain,70,2013-02-07 18:35:00
1:55 PM,59.0,57.2,94,30.00,3.0,ENE,3.5,-,N/A,Rain,Rain,60,2013-02-07 18:55:00
2:15 PM,59.0,57.2,94,29.98,5.0,NNE,6.9,-,N/A,Rain,Light Rain,30,2013-02-07 19:15:00
2:35 PM,60.8,59.0,94,29.98,10.0,East,13.8,23.0,N/A,Rain,Light Rain,90,2013-02-07 19:35:00
2:55 PM,59.0,59.0,100,29.98,7.0,ENE,4.6,16.1,N/A,Rain,Light Rain,60,2013-02-07 19:55:00
3:15 PM,59.0,57.2,94,29.97,5.0,ENE,10.4,-,N/A,Rain,Light Rain,60,2013-02-07 20:15:00
3:35 PM,59.0,55.4,88,29.96,2.0,ENE,9.2,-,N/A,Rain,Rain,70,2013-02-07 20:35:00
3:55 PM,59.0,55.4,88,29.95,5.0,ENE,8.1,-,N/A,Rain,Rain,60,2013-02-07 20:55:00
4:15 PM,59.0,55.4,88,29.94,5.0,NE,9.2,-,N/A,Rain,Rain,50,2013-02-07 21:15:00
4:35 PM,59.0,55.4,88,29.92,7.0,ENE,9.2,-,N/A,Rain,Light Rain,60,2013-02-07 21:35:00
4:55 PM,57.2,55.4,94,29.91,7.0,ENE,9.2,17.3,N/A,Rain,Light Rain,60,2013-02-07 21:55:00
5:15 PM,57.2,55.4,94,29.91,10.0,ENE,5.8,-,N/A,,Drizzle,60,2013-02-07 22:15:00
5:35 PM,57.2,55.4,94,29.89,10.0,ENE,15.0,19.6,N/A,Rain,Light Rain,70,2013-02-07 22:35:00
5:55 PM,57.2,55.4,94,29.89,10.0,ENE,11.5,16.1,N/A,Rain,Light Rain,60,2013-02-07 22:55:00
6:15 PM,57.2,55.4,94,29.87,10.0,ENE,16.1,26.5,N/A,Rain,Light Rain,70,2013-02-07 23:15:00
6:35 PM,57.2,55.4,94,29.86,10.0,ENE,8.1,-,N/A,,Light Drizzle,70,2013-02-07 23:35:00
6:55 PM,57.2,55.4,94,29.85,3.0,ENE,6.9,-,N/A,Rain,Rain,60,2013-02-07 23:55:00
7:15 PM,57.2,55.4,94,29.85,7.0,East,5.8,-,N/A,Rain,Heavy Rain,90,2013-02-08 00:15:00
7:35 PM,57.2,55.4,94,29.86,5.0,East,3.5,-,N/A,Rain,Rain,90,2013-02-08 00:35:00
7:55 PM,57.2,55.4,94,29.83,10.0,NE,9.2,-,N/A,Rain,Light Rain,50,2013-02-08 00:55:00
8:15 PM,57.2,55.4,94,29.83,4.0,NE,6.9,-,N/A,Rain,Rain,40,2013-02-08 01:15:00
8:35 PM,57.2,55.4,94,29.81,7.0,ENE,15.0,-,N/A,Rain,Rain,60,2013-02-08 01:35:00
8:55 PM,57.2,55.4,94,29.80,2.0,ENE,5.8,-,N/A,Rain,Heavy Rain,60,2013-02-08 01:55:00
9:15 PM,57.2,55.4,94,29.79,4.0,East,4.6,-,N/A,Rain,Heavy Rain,90,2013-02-08 02:15:00
9:35 PM,59.0,57.2,94,29.78,10.0,ENE,8.1,-,N/A,Rain,Light Rain,70,2013-02-08 02:35:00
9:55 PM,59.0,57.2,94,29.77,10.0,Calm,Calm,-,N/A,Rain,Light Rain,0,2013-02-08 02:55:00
10:15 PM,59.0,57.2,94,29.76,10.0,Calm,Calm,-,N/A,Rain,Light Rain,0,2013-02-08 03:15:00
10:35 PM,60.8,60.8,100,29.74,7.0,South,9.2,-,N/A,Rain,Rain,190,2013-02-08 03:35:00
10:55 PM,62.6,60.8,94,29.73,7.0,SSW,10.4,20.7,N/A,,Overcast,210,2013-02-08 03:55:00
11:15 PM,64.4,60.8,88,29.73,7.0,SSW,10.4,21.9,N/A,,Overcast,210,2013-02-08 04:15:00
11:35 PM,60.8,59.0,94,29.75,7.0,WNW,17.3,24.2,N/A,Rain,Light Rain,290,2013-02-08 04:35:00
11:55 PM,55.4,53.6,94,29.76,7.0,NW,13.8,20.7,N/A,Rain,Rain,310,2013-02-08 04:55:00